Wind_Speed
15 15 15 15 16 15 16 17 16 16 15 15 14 14 14 13 12 12 12 12 11 11 11 12 12 12 12 12 12 11 11 11 10 10 10 9 9 8 8 8 7 7 6 5 5 5 5 5 5
15 15 14 15 16 15 15 17 16 15 14 14 13 13 12 12 12 12 12 12 11 10 11 11 12 12 11 11 11 11 11 10 10 10 9 9 9 8 8 7 7 7 6 6 5 5 5 4 4
14 14 14 15 15 15 16 16 16 15 14 13 13 12 11 11 12 11 11 11 10 10 11 11 11 11 11 10 11 11 10 10 10 9 8 8 8 8 7 7 7 7 7 6 6 5 4 4 4
12 13 13 14 14 15 15 16 16 15 14 13 13 12 11 10 11 11 10 10 10 10 10 10 10 10 10 10 10 10 10 10 9 8 7 7 7 7 6 7 7 7 6 6 5 5 4 4 3
11 11 12 13 14 15 15 15 15 15 14 13 13 12 11 10 10 10 9 9 9 10 10 10 10 10 10 10 10 9 9 9 8 7 7 6 6 6 5 5 6 6 5 5 5 5 4 4 3
9 10 11 11 13 14 14 15 15 14 13 12 12 11 10 9 9 9 9 9 9 10 10 10 9 10 10 10 10 9 9 8 7 7 6 5 5 5 5 5 5 5 5 4 4 4 5 4 4
8 9 10 10 12 13 14 14 15 13 12 12 11 10 10 9 8 8 8 8 9 10 10 9 9 9 9 9 9 9 8 8 7 6 6 6 5 5 5 5 4 4 4 4 4 4 4 3 3
7 8 9 10 12 13 13 14 13 12 12 11 10 9 9 9 8 8 8 8 9 9 9 9 9 8 9 9 9 9 8 8 7 6 6 5 5 5 4 4 4 4 4 4 4 4 3 3 3
6 7 8 9 11 12 13 13 12 12 11 11 10 9 9 9 8 9 8 9 9 9 9 9 9 8 9 9 9 8 8 7 6 6 5 5 4 4 4 3 3 3 4 4 4 3 2 2 2
6 7 8 9 10 11 12 12 12 12 12 11 10 9 9 9 9 9 9 9 9 9 9 9 9 9 8 8 9 8 7 6 6 5 4 4 4 3 2 3 2 3 3 3 3 2 2 1 2
5 6 8 9 10 11 11 11 12 12 11 11 10 10 9 9 8 9 8 9 9 9 9 9 9 8 8 9 9 8 7 7 5 5 3 4 4 3 2 2 2 2 3 2 2 2 1 1 1
3 5 6 8 9 10 11 11 11 11 11 11 11 9 9 9 8 8 8 8 8 8 9 9 9 9 8 9 9 8 8 7 7 5 3 3 4 4 3 3 2 2 2 2 2 1 1 1 1
2 4 5 6 8 9 10 10 10 10 10 10 10 10 9 9 8 8 8 8 8 8 8 9 9 9 9 8 8 8 7 7 7 6 4 4 5 5 4 4 2 2 1 1 2 2 2 1 1
1 2 4 6 8 9 10 10 10 10 10 10 9 10 10 10 9 8 8 8 8 9 9 9 9 9 9 9 9 8 8 7 7 7 5 4 5 6 5 4 3 2 2 1 1 2 2 2 1
2 1 3 4 7 8 9 10 9 9 10 10 9 9 10 10 9 9 9 9 9 9 9 9 9 8 9 9 9 9 8 8 7 7 6 5 5 5 5 4 3 3 2 2 2 1 2 2 2
4 2 1 3 5 7 8 9 9 9 9 9 9 9 9 9 9 9 9 9 9 8 8 9 9 9 9 10 11 10 9 8 7 7 6 6 6 6 5 4 4 4 4 3 3 3 3 3 3
6 4 2 2 4 5 5 6 7 7 7 8 8 8 8 8 8 9 8 8 8 8 8 8 8 9 9 10 11 11 10 9 8 8 8 7 7 7 6 4 4 4 4 4 4 4 3 3 3
8 6 4 2 2 3 3 4 5 6 6 6 7 7 7 7 8 8 8 8 7 7 7 7 8 8 9 10 11 11 11 10 9 9 8 7 7 7 6 5 5 4 4 4 4 4 4 4 4
11 8 6 3 2 1 1 2 3 4 4 4 5 5 6 6 7 7 8 7 7 7 6 7 7 7 8 9 10 11 10 10 9 9 8 8 8 7 6 6 6 5 5 5 5 5 5 5 5
13 11 9 7 5 3 2 1 0 2 3 4 4 4 5 5 6 6 7 7 7 6 6 6 6 7 8 8 9 10 9 9 9 9 9 9 9 8 7 6 6 6 5 6 6 6 5 5 5
15 13 11 10 8 6 5 4 3 1 3 3 3 4 4 4 5 5 5 6 6 6 6 7 7 7 7 8 8 9 9 9 10 9 9 9 10 9 9 7 7 7 6 6 6 5 4 4 5
17 15 14 12 11 9 8 6 5 4 3 2 2 3 3 4 4 4 4 5 5 6 6 7 7 7 7 7 8 8 9 9 10 10 10 10 10 10 10 8 8 7 7 7 6 6 5 6 6
18 17 16 16 14 11 9 8 6 5 4 2 2 2 3 4 4 4 4 4 5 6 6 7 7 7 7 7 7 8 9 9 10 11 11 12 11 12 11 9 8 8 8 8 7 7 6 6 7
21 19 18 18 17 15 12 11 8 7 5 4 4 4 4 4 4 4 4 4 5 6 6 7 7 7 7 7 8 8 9 10 10 12 12 13 13 12 11 10 9 8 8 8 8 7 7 7 7
23 22 21 20 19 16 14 14 10 8 7 6 6 6 6 5 5 4 4 4 4 5 6 7 7 7 7 7 8 9 9 10 11 12 12 13 13 13 12 11 10 9 9 9 9 8 8 8 8
23 23 23 22 20 17 17 16 12 10 9 9 8 6 6 6 6 5 5 5 5 6 6 6 7 7 8 8 8 9 9 10 11 12 13 13 14 13 13 12 11 11 11 11 10 10 9 9 9
24 24 24 24 22 20 19 17 14 13 11 9 8 7 7 7 7 6 5 5 6 6 6 6 7 8 8 8 9 9 10 11 11 12 13 14 14 14 14 13 12 11 11 11 11 11 11 10 10
24 24 24 24 23 22 20 18 16 14 12 10 10 9 8 8 7 6 6 6 6 7 7 7 8 9 9 9 10 10 11 11 12 13 14 15 15 14 14 14 13 12 12 12 12 11 11 10 10
25 25 24 23 22 22 21 19 16 15 14 13 11 10 9 8 8 8 7 7 7 7 8 8 9 10 10 10 11 11 12 12 13 14 15 15 16 15 15 14 14 13 13 13 12 11 11 11 11
26 25 25 24 23 22 21 19 17 16 15 14 13 11 10 9 10 10 9 8 8 8 9 9 10 11 11 12 12 13 12 13 14 15 16 15 16 16 16 16 15 14 14 13 13 12 12 12 11
Wind_Direction
69 69 68 70 71 72 73 73 71 70 72 72 71 72 73 74 72 73 73 73 70 67 67 67 66 66 65 65 64 64 64 64 65 64 66 67 66 65 70 74 79 83 83 91 102 105 105 102 104
71 68 67 67 67 67 70 72 72 69 70 73 70 71 72 73 74 73 72 71 68 66 65 66 67 66 64 64 63 63 62 62 63 64 65 65 64 67 69 71 75 80 87 93 100 106 103 105 108
67 67 66 64 66 66 68 71 71 69 66 67 66 67 70 71 74 72 69 69 66 64 64 65 65 63 61 61 61 60 61 60 61 63 65 64 63 64 68 70 69 76 79 84 93 95 104 110 110
64 64 63 64 64 65 68 71 70 65 61 62 64 63 64 65 68 68 67 66 64 63 64 65 62 60 60 58 59 58 57 55 56 58 60 62 62 61 67 73 73 77 76 79 88 91 101 111 107
63 64 64 65 63 64 67 67 69 66 61 61 64 64 65 66 65 64 64 63 61 61 61 61 59 57 58 55 54 53 54 50 48 51 56 61 63 61 63 67 73 74 70 73 80 87 97 108 102
70 66 65 65 65 65 66 64 64 65 61 60 61 63 67 67 66 63 60 60 58 59 60 59 58 54 55 53 52 51 50 48 45 45 52 57 61 59 59 63 72 68 63 70 75 85 93 95 100
72 70 66 67 67 65 65 62 61 63 59 57 59 64 67 67 65 61 57 58 58 59 59 57 53 52 50 50 51 46 46 43 43 48 53 56 58 57 58 60 66 61 61 67 67 73 82 81 97
68 71 67 66 67 66 65 63 60 61 59 56 57 61 64 61 59 55 59 60 57 56 54 50 48 47 44 45 48 44 43 41 42 51 56 53 51 51 53 60 52 59 61 60 63 72 66 66 74
67 71 71 69 69 65 65 65 64 63 59 55 54 55 60 57 55 53 57 62 59 54 52 49 48 45 41 45 47 43 40 39 43 54 53 49 41 42 49 46 40 47 55 58 62 61 62 61 61
65 69 71 72 69 65 63 63 63 61 56 51 50 53 58 59 56 56 57 58 55 51 49 49 42 41 43 47 46 40 42 42 49 54 51 42 38 38 37 32 35 45 58 59 59 58 63 49 48
68 76 75 71 68 67 63 61 59 57 56 52 52 54 55 56 56 57 55 53 52 49 47 45 44 46 46 46 44 43 45 42 47 52 48 37 28 32 42 38 34 54 60 64 63 56 50 46 41
80 86 80 73 73 71 64 60 57 54 54 52 54 55 53 53 55 51 49 51 49 48 48 49 50 50 49 49 44 38 41 41 38 31 40 38 35 41 43 29 40 47 65 70 55 28 11 3 339
114 88 80 73 73 70 63 59 57 51 52 54 57 54 50 50 52 52 49 49 47 45 45 48 54 56 51 45 37 28 30 35 37 43 42 39 23 21 24 29 32 19 3 14 14 15 358 339 319
162 111 90 77 72 69 60 53 53 50 50 51 53 54 50 51 53 54 54 49 50 48 45 48 51 52 47 39 34 27 29 34 32 32 30 22 16 18 14 12 15 2 343 322 337 350 344 330 318
211 169 112 84 76 70 60 52 49 47 46 46 47 50 53 58 57 59 59 54 53 49 47 47 46 45 39 32 28 23 23 29 31 30 24 14 6 8 5 358 358 350 342 334 314 304 299 311 301
224 218 157 106 90 70 61 53 48 47 45 44 44 47 53 57 57 56 55 54 52 49 45 44 43 39 34 30 26 20 19 24 26 23 14 5 0 1 356 347 344 338 333 327 308 290 291 295 286
225 225 200 142 112 85 66 52 47 42 40 40 37 41 51 54 53 50 48 48 48 44 41 40 38 36 32 28 25 23 23 25 21 16 12 6 357 354 351 342 334 327 327 319 307 293 299 298 287
229 229 213 168 128 98 74 59 46 35 32 33 35 39 48 50 46 45 44 42 41 39 37 34 34 30 26 25 24 26 29 29 26 21 14 4 356 354 357 353 339 325 323 315 309 295 287 283 288
229 229 219 198 188 162 106 74 47 38 23 25 36 41 48 50 47 43 39 34 32 30 30 27 27 23 20 22 22 24 26 26 26 23 18 10 2 358 355 352 341 329 321 316 306 293 282 277 279
228 229 226 219 222 219 205 187 63 27 357 352 16 36 32 41 45 41 36 31 27 24 20 17 21 19 20 20 19 20 21 18 16 17 15 9 2 359 356 346 339 329 319 317 312 301 284 284 274
229 231 230 227 227 228 235 236 240 265 308 333 360 9 15 25 33 30 26 24 20 15 10 10 15 15 17 17 17 17 16 11 8 7 5 2 359 354 347 338 335 327 318 314 308 299 288 279 281
227 230 232 232 231 234 242 242 237 241 263 308 335 350 360 8 9 16 16 15 11 6 3 4 11 10 10 10 11 10 10 6 3 3 0 357 355 348 340 336 332 332 321 316 309 305 292 282 278
227 232 236 237 237 235 236 243 241 245 256 279 309 324 333 349 344 350 2 5 6 5 3 7 9 7 7 4 2 3 3 1 358 356 352 348 346 345 342 337 334 331 326 316 310 308 297 291 281
228 230 235 238 239 241 242 246 242 251 264 272 285 290 305 320 337 335 343 348 358 4 4 0 0 0 359 358 358 355 354 354 353 351 349 345 342 340 338 332 327 323 322 314 308 305 296 292 288
229 230 234 237 238 241 242 247 250 253 263 270 272 277 288 300 312 319 333 345 349 354 356 359 358 355 353 352 351 349 347 346 345 345 345 343 340 337 335 330 322 316 314 312 306 301 294 288 284
231 233 237 239 240 244 245 248 252 255 260 263 262 262 276 286 305 305 318 330 339 340 344 347 348 346 343 342 343 343 340 339 338 338 338 337 336 332 330 326 317 310 307 305 304 300 296 288 283
229 232 236 236 238 242 247 247 247 251 254 259 261 262 270 281 298 299 301 312 318 325 331 334 333 330 326 327 333 333 332 331 333 333 333 333 332 331 329 324 316 310 306 303 298 292 290 286 283
229 231 234 235 238 241 245 246 248 253 253 258 259 262 269 273 280 294 294 297 302 303 310 316 314 315 315 315 320 325 329 329 326 325 327 329 330 327 324 320 317 310 307 304 299 293 293 292 288
228 229 233 236 240 243 244 247 250 252 254 256 258 260 262 266 275 284 288 286 293 294 295 303 308 311 312 309 311 318 323 325 325 325 325 326 327 326 322 319 315 311 308 304 298 295 293 294 290
226 229 232 236 240 241 245 247 248 250 255 259 261 262 262 263 273 280 278 280 289 292 293 298 303 308 308 308 308 312 317 320 323 323 324 325 326 324 321 317 313 308 306 300 293 292 292 291 290
Height
5892 5891 5891 5891 5891 5889 5888 5887 5886 5886 5886 5886 5885 5885 5885 5885 5886 5888 5885 5883 5883 5883 5882 5882 5881 5880 5880 5880 5880 5880 5880 5880 5879 5879 5880 5879 5880 5880 5880 5880 5880 5881 5881 5881 5881 5882 5882 5883 5883
5894 5894 5894 5894 5892 5891 5890 5889 5888 5888 5888 5888 5887 5887 5887 5887 5887 5886 5885 5885 5885 5884 5884 5883 5882 5882 5882 5881 5881 5881 5881 5881 5881 5881 5881 5881 5881 5881 5881 5881 5881 5881 5882 5882 5882 5882 5883 5883 5883
5897 5896 5897 5895 5894 5893 5892 5891 5890 5890 5890 5890 5889 5889 5889 5889 5888 5888 5887 5887 5887 5886 5885 5884 5884 5883 5883 5883 5882 5882 5882 5882 5882 5882 5882 5882 5882 5882 5882 5882 5882 5882 5882 5883 5883 5883 5883 5883 5884
5899 5899 5899 5897 5896 5895 5894 5893 5892 5892 5892 5891 5891 5891 5890 5891 5890 5890 5889 5889 5888 5887 5886 5886 5885 5885 5884 5884 5884 5883 5883 5883 5883 5883 5883 5883 5883 5883 5883 5883 5883 5883 5883 5883 5884 5884 5884 5884 5884
5901 5901 5900 5899 5898 5897 5896 5895 5894 5894 5894 5893 5893 5893 5892 5892 5892 5891 5891 5890 5890 5889 5888 5887 5886 5886 5886 5885 5885 5884 5884 5884 5884 5884 5884 5884 5884 5884 5884 5884 5884 5884 5884 5884 5884 5884 5884 5885 5885
5904 5903 5903 5901 5900 5899 5898 5897 5896 5896 5896 5896 5895 5895 5894 5894 5893 5893 5892 5892 5891 5890 5889 5888 5888 5887 5887 5886 5886 5886 5885 5885 5884 5884 5884 5884 5885 5885 5885 5885 5885 5885 5885 5885 5885 5885 5885 5885 5885
5906 5905 5904 5903 5902 5901 5900 5899 5898 5898 5898 5898 5897 5896 5896 5896 5895 5894 5894 5893 5892 5892 5891 5890 5889 5889 5888 5888 5887 5887 5886 5886 5885 5885 5885 5885 5885 5885 5885 5885 5885 5885 5885 5885 5885 5886 5886 5886 5886
5906 5906 5905 5904 5904 5903 5902 5901 5900 5900 5900 5900 5899 5898 5897 5897 5897 5896 5895 5895 5894 5893 5893 5892 5891 5890 5890 5889 5888 5888 5887 5887 5886 5886 5886 5886 5886 5886 5885 5885 5886 5886 5886 5886 5886 5886 5886 5886 5887
5907 5908 5906 5906 5905 5905 5904 5903 5903 5902 5902 5901 5900 5900 5900 5899 5898 5898 5897 5897 5896 5895 5894 5893 5893 5892 5891 5890 5889 5889 5888 5887 5887 5887 5887 5887 5886 5886 5886 5885 5886 5886 5886 5886 5886 5886 5886 5887 5887
5908 5908 5908 5907 5907 5906 5906 5905 5905 5904 5903 5903 5902 5901 5901 5901 5900 5900 5899 5898 5897 5897 5896 5895 5894 5893 5892 5891 5890 5890 5889 5888 5888 5888 5887 5887 5886 5886 5886 5886 5886 5886 5886 5886 5887 5887 5887 5887 5887
5909 5909 5909 5908 5908 5908 5907 5907 5906 5905 5905 5905 5904 5903 5903 5902 5902 5901 5901 5900 5899 5898 5897 5896 5895 5894 5893 5892 5891 5891 5890 5889 5889 5888 5888 5888 5887 5886 5886 5885 5886 5886 5886 5886 5887 5887 5887 5887 5887
5910 5910 5910 5910 5909 5909 5909 5908 5908 5907 5907 5906 5905 5905 5904 5904 5903 5902 5902 5901 5900 5899 5898 5897 5896 5895 5895 5894 5893 5892 5891 5890 5889 5888 5888 5888 5887 5887 5886 5886 5886 5886 5886 5887 5887 5887 5887 5887 5887
5911 5911 5911 5911 5911 5911 5910 5910 5910 5909 5908 5908 5907 5906 5905 5905 5904 5903 5903 5902 5901 5900 5899 5899 5898 5897 5896 5895 5894 5893 5892 5891 5890 5888 5888 5888 5888 5888 5887 5887 5887 5887 5887 5887 5887 5887 5887 5887 5887
5912 5912 5912 5912 5912 5912 5912 5912 5911 5910 5910 5909 5909 5908 5907 5906 5905 5904 5904 5903 5902 5901 5901 5900 5899 5899 5897 5896 5895 5894 5893 5892 5891 5890 5889 5889 5888 5888 5887 5887 5887 5887 5887 5887 5887 5887 5887 5887 5887
5912 5913 5913 5913 5913 5913 5914 5913 5913 5912 5911 5911 5910 5909 5908 5907 5907 5906 5905 5904 5904 5903 5902 5901 5901 5900 5899 5898 5897 5895 5894 5893 5892 5891 5890 5889 5889 5888 5888 5887 5887 5887 5887 5887 5887 5887 5887 5887 5887
5912 5913 5914 5914 5914 5914 5916 5915 5914 5913 5913 5912 5911 5911 5910 5909 5908 5907 5907 5906 5905 5905 5904 5903 5902 5901 5900 5899 5898 5896 5895 5894 5893 5892 5891 5890 5889 5888 5888 5888 5887 5887 5887 5887 5887 5887 5887 5887 5887
5912 5913 5914 5914 5914 5914 5915 5915 5915 5915 5914 5913 5912 5912 5911 5910 5909 5909 5908 5907 5907 5906 5905 5904 5904 5902 5901 5900 5898 5897 5896 5894 5893 5892 5891 5890 5890 5889 5888 5888 5887 5887 5887 5886 5886 5886 5886 5886 5886
5912 5913 5913 5914 5915 5915 5915 5916 5916 5915 5915 5914 5913 5913 5912 5911 5910 5910 5909 5909 5908 5907 5906 5906 5905 5904 5902 5901 5899 5898 5897 5895 5894 5893 5892 5891 5890 5889 5889 5888 5887 5887 5886 5886 5885 5885 5885 5885 5885
5911 5912 5913 5914 5914 5915 5915 5916 5916 5915 5915 5915 5914 5914 5913 5912 5911 5911 5910 5909 5909 5908 5907 5907 5905 5904 5903 5902 5900 5899 5898 5896 5895 5894 5893 5892 5890 5889 5889 5888 5887 5886 5885 5884 5884 5884 5884 5884 5884
5909 5911 5913 5914 5914 5915 5915 5916 5916 5916 5916 5916 5915 5914 5914 5913 5912 5911 5911 5910 5909 5909 5908 5907 5906 5905 5904 5903 5901 5900 5899 5898 5896 5895 5894 5892 5891 5890 5888 5888 5886 5885 5884 5884 5883 5883 5883 5882 5883
5908 5910 5911 5913 5913 5914 5915 5915 5916 5916 5916 5916 5916 5915 5914 5913 5913 5912 5911 5910 5910 5909 5909 5908 5907 5906 5905 5904 5903 5901 5900 5898 5897 5896 5894 5893 5891 5889 5888 5887 5886 5885 5883 5883 5882 5882 5882 5881 5881
5906 5908 5910 5911 5912 5912 5914 5915 5915 5915 5916 5916 5916 5915 5914 5914 5913 5912 5912 5911 5910 5910 5909 5908 5907 5906 5905 5904 5903 5902 5901 5899 5898 5896 5895 5893 5891 5890 5888 5887 5885 5884 5883 5882 5881 5881 5880 5880 5880
5904 5906 5907 5908 5909 5911 5912 5913 5915 5914 5915 5915 5915 5915 5914 5914 5913 5912 5912 5911 5911 5910 5909 5908 5908 5907 5906 5904 5903 5902 5901 5900 5898 5897 5895 5893 5892 5889 5888 5886 5885 5883 5882 5881 5880 5880 5879 5879 5879
5900 5903 5904 5905 5906 5908 5910 5911 5913 5913 5914 5914 5914 5914 5914 5913 5913 5912 5911 5911 5911 5910 5909 5908 5908 5907 5906 5904 5903 5902 5901 5900 5898 5897 5895 5893 5891 5889 5887 5885 5884 5882 5881 5880 5880 5879 5878 5877 5877
5897 5900 5901 5902 5903 5906 5908 5908 5911 5912 5912 5913 5913 5913 5913 5913 5912 5911 5911 5911 5910 5909 5909 5908 5907 5906 5905 5904 5903 5902 5901 5899 5898 5896 5894 5892 5890 5888 5886 5884 5882 5881 5880 5879 5878 5877 5876 5876 5876
5893 5896 5898 5900 5901 5904 5905 5906 5909 5910 5910 5910 5911 5911 5911 5912 5911 5911 5910 5909 5909 5909 5908 5907 5907 5906 5905 5904 5903 5902 5900 5899 5897 5895 5893 5891 5889 5887 5885 5883 5881 5880 5879 5878 5877 5876 5875 5874 5874
5889 5891 5894 5896 5898 5900 5902 5904 5906 5907 5908 5908 5909 5910 5910 5910 5910 5909 5909 5909 5908 5908 5907 5906 5906 5905 5904 5903 5902 5901 5899 5898 5896 5894 5892 5890 5887 5885 5883 5881 5879 5878 5877 5876 5875 5874 5873 5872 5871
5885 5887 5890 5892 5894 5896 5898 5901 5903 5904 5906 5907 5907 5908 5908 5909 5909 5908 5908 5908 5907 5907 5906 5905 5904 5903 5903 5902 5901 5899 5898 5896 5894 5893 5891 5888 5886 5884 5882 5880 5878 5877 5875 5874 5872 5871 5870 5870 5869
5881 5883 5885 5888 5891 5893 5895 5900 5901 5902 5903 5904 5905 5906 5906 5907 5907 5907 5906 5906 5906 5905 5904 5904 5903 5902 5901 5900 5899 5898 5896 5895 5893 5891 5889 5887 5884 5882 5880 5878 5876 5875 5873 5872 5870 5869 5868 5867 5867
5876 5879 5882 5885 5887 5889 5892 5897 5897 5899 5900 5901 5902 5903 5904 5904 5904 5904 5904 5904 5904 5903 5903 5902 5901 5900 5899 5898 5897 5895 5894 5892 5891 5889 5887 5885 5882 5880 5878 5875 5874 5872 5871 5869 5868 5867 5866 5865 5864